Tracking 17844 objects as of 24-August-2016
HD Live streaming from Space Station
objects crossing your sky now

ASIASTAR

Track ASIASTAR now!
ASIASTAR is classified as:


NORAD ID: 26107
Int'l Code: 2000-016A
Perigee: 35,775.6 km
Apogee: 35,811.8 km
Inclination: 1.1 °
Period: 1,436.1 minutes
Semi major axis: 42164 km
RCS: 19.9526 m2 (large)
Launch date: March 21, 2000
Source: United States (US)
Launch site: FRENCH GUIANA (FRGUI)

Africa, Middle East, Asia, Latin America and Caribbean. Services to underserved emerging markets; low-cost portable receivers.
Your satellite tracking list
Your tracking list is empty





NASA's NSSDC Master Catalog

Two Line Element Set (TLE):
1 26107U 00016A   16236.45172635 -.00000354  00000-0  00000+0 0  9996
2 26107   1.0584  81.9514 0004299  74.8568  83.0161  1.00271911 60205
Source of the keplerian elements: AFSPC

N2YO: 469